Temp
14 15 15 15 14 14 14 13 13 13 13 13 13 13 13 13 13 13 13 13 13 13 13 13 13 13 13 13 13 14 14 14 14 14 14 13 13 13 13 13 13 13 13 13 14 14 14 14 14 14 14 14 13 13 13 13 12 12 12 12 12 12 12 12 11 11 11 11 11
14 14 14 14 14 14 14 13 13 13 13 13 13 13 13 13 13 13 13 13 13 13 13 13 13 13 13 13 13 13 13 13 13 13 13 13 13 13 13 14 14 14 14 14 14 14 14 14 14 14 14 14 14 14 13 13 13 12 12 12 12 12 12 12 11 11 11 11 11
14 14 14 14 14 14 14 13 13 13 13 13 13 13 13 12 12 12 12 12 13 13 13 13 13 13 13 13 13 13 13 13 13 13 13 13 14 14 14 14 14 15 15 15 15 15 15 15 15 15 14 14 14 14 14 13 13 13 13 12 12 12 12 12 12 12 12 11 11
13 14 14 14 14 14 14 13 13 13 13 13 13 13 13 12 12 12 12 13 13 13 13 13 13 13 13 13 13 13 13 13 13 13 14 14 14 14 14 15 15 15 15 15 15 15 15 15 15 15 15 14 14 14 14 14 13 13 13 13 13 12 12 12 12 12 12 12 12
14 14 14 14 14 14 13 13 13 13 13 13 13 13 13 13 13 13 13 13 13 13 13 13 13 12 13 13 13 13 13 13 14 14 14 14 14 14 15 15 15 15 15 15 15 15 15 15 15 15 15 15 14 14 14 14 13 13 13 13 13 13 13 12 12 12 12 12 12
14 14 14 14 14 14 13 13 13 13 13 13 13 13 13 13 13 13 13 13 13 13 13 13 13 13 13 13 13 13 13 14 14 14 14 14 14 15 15 15 15 15 15 15 15 15 15 15 15 15 15 15 15 14 14 14 14 13 13 13 13 13 13 13 13 12 12 12 12
13 13 13 13 13 13 13 13 13 13 13 13 13 13 13 13 13 13 13 13 13 13 13 13 13 13 13 13 13 13 14 14 14 14 14 15 15 15 15 15 15 15 15 15 15 15 15 15 15 14 14 14 14 14 14 14 14 14 14 14 13 13 13 13 13 13 12 12 12
13 13 13 13 13 13 13 13 12 12 12 12 12 13 13 13 13 13 13 13 13 13 13 13 13 13 13 13 14 14 14 14 14 14 15 15 15 15 15 15 15 15 15 15 14 14 14 14 14 14 14 14 14 14 14 14 13 13 13 13 13 13 13 13 13 13 13 12 12
13 13 13 13 13 12 12 12 12 12 12 12 12 12 13 13 13 13 13 13 13 13 13 13 13 14 14 14 14 14 14 14 14 14 14 14 14 14 14 14 14 14 14 14 14 14 14 14 14 14 14 13 13 13 13 13 13 13 13 13 13 13 13 13 13 13 13 12 12
13 13 13 13 12 12 12 12 12 12 12 12 12 13 13 13 13 13 13 13 13 13 14 14 14 14 14 14 14 14 14 14 14 14 14 14 14 14 14 14 14 14 14 14 14 14 14 13 13 13 13 13 13 13 13 13 13 13 13 13 13 13 13 13 13 13 12 12 12
13 13 13 12 12 12 12 12 12 12 12 12 12 13 13 13 13 13 13 14 14 14 14 14 14 14 14 14 14 14 14 14 14 14 14 14 14 14 14 14 14 13 13 13 13 13 13 13 13 13 13 13 13 13 13 13 13 13 13 13 13 13 13 13 13 12 12 12 12
12 12 12 12 12 12 11 12 12 12 12 12 13 13 13 13 13 13 14 14 14 14 14 14 14 14 14 14 14 14 14 14 14 14 14 14 14 14 14 13 13 13 13 13 13 13 13 13 13 13 13 13 13 13 13 13 13 13 13 12 12 12 12 12 12 12 12 11 11
12 12 12 12 11 11 12 12 12 12 12 13 13 13 13 13 13 14 14 14 13 14 14 14 14 14 14 14 14 14 14 14 14 14 14 14 13 13 13 13 13 13 13 13 13 13 13 13 12 12 12 12 12 12 12 12 12 12 12 12 12 12 12 12 12 12 11 11 11
12 12 12 12 12 12 12 12 12 13 13 13 13 13 13 13 13 13 13 13 13 13 13 13 13 13 13 13 13 13 13 13 13 13 13 13 13 13 13 13 13 13 13 13 12 12 12 12 12 12 12 12 12 12 12 12 12 12 12 12 11 11 11 11 11 11 11 11 11
12 12 12 12 12 12 12 13 13 13 13 13 13 13 13 13 13 13 13 13 13 13 13 13 13 13 13 13 13 13 13 13 13 13 13 13 13 13 13 12 12 12 12 12 12 12 12 12 12 12 11 11 11 11 11 11 11 11 11 11 11 11 11 11 11 11 11 11 11
12 12 12 12 12 12 12 12 13 13 13 13 13 13 13 13 13 13 13 13 13 13 13 13 13 13 13 13 13 13 13 13 13 12 12 12 12 12 12 12 12 12 12 12 12 11 11 11 11 11 11 11 11 11 11 11 11 11 11 11 11 11 11 11 11 11 11 10 10
12 12 12 12 12 12 12 12 12 12 13 13 13 13 13 13 13 13 13 13 13 13 13 13 13 13 13 13 13 13 12 12 12 12 12 12 12 12 12 11 11 11 11 11 11 11 11 11 11 11 11 11 10 10 10 10 10 10 10 10 10 10 10 10 10 10 10 10 10
12 12 12 12 12 12 12 12 12 12 12 12 12 12 12 12 12 12 12 12 12 12 12 12 12 12 12 12 12 12 12 12 12 12 12 11 11 11 11 11 11 11 11 11 11 11 10 10 10 10 10 10 10 10 10 10 10 10 10 10 10 10 10 10 10 10 10 10 10
11 11 11 11 12 12 12 12 12 12 12 12 12 12 12 12 12 12 12 12 12 12 12 12 12 12 12 12 12 12 12 11 11 11 11 11 11 11 11 11 11 11 10 10 10 10 10 10 10 10 10 9 9 9 10 10 10 10 10 10 10 10 10 10 10 10 10 10 10
11 11 11 11 11 11 12 12 12 12 12 12 12 12 12 12 12 12 12 12 12 12 12 12 12 12 11 11 11 11 11 11 11 11 11 11 11 11 10 10 10 10 10 10 10 9 9 9 9 9 9 9 9 9 9 9 9 9 9 9 9 9 9 9 9 9 9 9 9
11 11 11 11 11 11 12 12 12 12 12 12 12 12 12 12 12 12 12 12 12 12 11 11 11 11 11 11 11 11 10 10 10 10 10 10 10 10 9 9 9 9 9 9 9 9 9 9 9 8 8 8 8 9 8 8 8 8 8 8 8 8 8 8 8 8 8 8 8
11 11 11 11 11 11 11 11 11 11 11 11 12 12 12 11 11 11 11 11 11 11 11 11 11 10 10 10 10 9 9 9 9 9 8 8 8 8 8 8 8 8 8 8 8 8 8 8 8 8 8 8 7 7 7 7 7 7 7 7 7 7 7 7 7 6 6 6 6
11 11 11 11 11 11 11 11 11 11 11 11 11 11 11 11 10 10 10 10 10 10 10 10 9 9 9 8 8 8 8 7 7 7 7 6 6 7 7 7 7 7 6 6 6 6 6 6 6 6 6 6 6 6 6 6 6 6 6 6 6 6 6 6 5 5 5 5 5
11 11 11 11 11 11 11 11 11 11 11 11 10 10 10 10 9 9 9 9 9 9 8 8 8 8 7 7 6 6 6 6 5 5 5 5 5 5 5 5 5 6 5 5 5 5 5 5 5 5 5 5 5 5 5 5 5 5 5 6 6 6 5 5 5 5 5 5 5
10 10 10 10 10 10 10 11 11 11 10 10 9 9 9 8 8 8 8 8 7 7 7 7 6 6 5 5 4 4 4 4 4 4 4 4 4 4 4 4 5 5 4 4 4 4 4 4 4 4 5 5 5 5 5 5 5 5 6 6 6 6 6 6 6 6 6 6 5
10 10 10 10 10 10 10 10 10 10 10 9 8 8 8 7 7 7 7 6 6 6 5 5 5 4 4 3 3 3 3 3 3 3 3 3 3 3 3 4 4 4 3 3 3 3 3 3 4 4 4 4 4 5 5 5 5 6 6 6 6 6 6 6 6 6 6 6 6
10 10 10 10 10 10 10 10 10 9 9 8 8 7 7 7 6 6 6 5 5 5 4 4 4 3 3 3 3 3 3 3 3 2 3 3 3 3 3 3 3 2 2 2 2 2 3 3 3 4 4 4 5 5 5 5 6 6 6 6 6 6 6 6 7 7 7 7 7
10 10 9 9 10 10 10 10 9 9 8 7 7 7 6 6 6 5 5 5 4 4 4 4 4 3 3 3 3 3 3 2 2 2 2 2 3 3 3 3 2 2 2 2 2 2 2 3 4 4 4 4 5 5 5 5 6 6 6 6 6 6 6 6 6 6 6 6 6
9 9 9 9 9 10 10 9 9 8 8 7 7 6 6 5 5 5 4 4 4 4 4 4 4 3 3 3 3 3 3 3 3 2 2 3 3 3 3 2 2 2 1 1 1 2 3 3 4 4 5 5 5 5 5 5 6 6 6 6 6 6 6 6 6 6 6 6 6
9 9 9 9 9 9 9 9 8 7 7 7 6 6 5 5 4 4 4 4 4 4 4 4 3 3 3 3 3 3 3 3 3 3 3 3 3 3 3 3 2 2 2 1 1 2 3 3 4 4 5 5 5 5 5 5 5 5 6 6 6 6 6 6 6 6 6 6 6
9 9 9 9 9 9 9 8 7 7 6 6 5 5 5 4 4 4 4 4 4 4 3 3 3 3 3 3 3 3 3 3 2 3 3 3 3 3 3 3 2 2 1 1 1 2 2 3 4 4 4 5 5 5 5 5 5 5 5 5 5 5 6 6 6 6 6 6 6
9 9 9 9 9 9 8 7 7 6 6 5 5 5 4 4 4 4 4 3 3 3 3 3 3 3 3 3 2 2 2 2 2 2 2 2 2 2 2 2 2 1 1 1 1 2 2 3 3 4 4 4 4 4 4 5 5 5 5 5 5 5 5 5 5 5 5 5 5
9 9 9 9 9 8 7 7 6 6 5 5 5 4 4 4 4 3 3 3 3 3 3 3 3 3 2 2 2 2 2 2 2 2 2 2 2 2 2 1 1 1 1 1 1 1 2 3 3 4 4 4 4 4 4 4 4 4 4 4 4 5 5 5 5 5 5 5 5
9 9 9 9 8 8 7 6 5 5 5 4 4 4 4 4 3 3 3 3 3 3 3 3 3 3 3 3 3 3 3 3 3 2 2 2 2 2 1 1 1 1 0 0 1 1 2 2 3 3 4 4 4 4 4 4 4 4 4 4 4 4 4 4 5 5 5 5 5
9 9 9 9 8 7 6 5 5 5 4 4 4 4 4 3 3 3 3 3 2 2 2 2 3 3 3 3 3 3 3 3 3 3 2 2 2 2 1 1 1 1 0 0 1 1 2 2 3 3 3 4 4 4 4 3 3 3 3 4 4 4 4 4 4 4 4 4 5
8 9 8 8 7 6 5 5 4 4 4 4 3 3 3 3 3 3 3 2 2 2 2 3 3 3 3 3 3 3 3 3 3 3 2 2 2 2 1 1 1 1 1 1 1 1 2 2 3 3 3 3 3 3 3 3 3 3 3 3 3 3 3 4 4 4 4 4 4
8 8 8 8 7 6 5 4 4 4 4 3 3 3 3 3 3 3 3 2 2 2 2 3 3 3 3 3 3 3 3 3 2 2 2 2 2 2 2 2 2 1 1 1 1 1 1 2 2 3 3 3 3 3 3 3 3 3 3 3 3 3 3 3 3 4 4 4 4
7 8 8 7 6 5 5 4 4 4 3 3 3 3 3 3 3 3 3 3 3 3 3 3 3 3 3 3 3 3 3 3 2 2 2 2 2 2 2 2 2 2 2 2 1 1 2 2 2 2 3 3 3 3 3 2 2 3 3 3 3 3 3 3 3 3 3 3 3
7 7 7 7 6 5 4 4 4 3 3 3 3 3 3 3 3 3 3 3 3 3 3 3 3 3 3 3 3 3 3 2 2 2 2 2 2 2 2 2 2 2 2 2 2 2 2 2 2 2 2 2 2 2 2 2 2 2 3 3 3 2 2 2 3 3 3 3 3
6 6 6 6 6 5 4 4 3 3 3 3 3 3 3 3 3 3 3 3 3 3 3 3 3 3 3 3 3 3 3 2 2 2 2 2 2 3 3 3 3 2 2 2 2 2 2 2 2 2 2 2 2 2 2 2 2 2 2 2 2 2 2 2 2 2 3 3 3
6 6 6 6 5 5 4 3 3 3 3 3 3 3 3 3 3 3 3 3 3 3 3 3 3 3 3 3 3 3 2 2 2 2 2 3 3 3 3 3 3 2 2 2 2 2 2 2 2 2 2 2 2 2 2 2 2 2 2 2 2 2 2 2 2 2 2 2 2
Height
1524 1525 1526 1526 1527 1528 1528 1529 1530 1531 1531 1532 1533 1533 1534 1534 1534 1535 1536 1536 1536 1536 1537 1537 1538 1538 1539 1540 1540 1540 1541 1541 1541 1541 1542 1542 1542 1543 1543 1543 1543 1543 1543 1543 1543 1543 1543 1543 1543 1543 1543 1543 1543 1543 1543 1543 1543 1543 1543 1542 1542 1542 1541 1541 1541 1541 1541 1541 1541
1523 1524 1525 1526 1526 1527 1527 1528 1529 1530 1531 1531 1532 1532 1532 1532 1532 1533 1533 1533 1534 1534 1535 1535 1536 1536 1537 1538 1538 1539 1539 1539 1539 1540 1541 1541 1541 1541 1541 1541 1541 1541 1541 1541 1541 1541 1541 1541 1541 1541 1541 1541 1541 1541 1541 1541 1541 1541 1541 1540 1540 1540 1540 1539 1539 1538 1538 1538 1539
1522 1523 1524 1525 1525 1526 1526 1527 1528 1528 1529 1530 1530 1530 1530 1530 1531 1531 1531 1531 1531 1532 1533 1533 1533 1534 1535 1536 1536 1537 1538 1538 1538 1539 1539 1539 1539 1539 1539 1539 1539 1539 1539 1539 1539 1539 1539 1539 1539 1539 1539 1539 1539 1539 1539 1539 1539 1539 1538 1538 1538 1538 1537 1537 1537 1537 1536 1536 1536
1521 1522 1523 1523 1524 1525 1526 1526 1527 1527 1528 1528 1528 1528 1529 1529 1530 1530 1530 1531 1530 1531 1531 1531 1531 1531 1532 1533 1534 1535 1536 1536 1536 1537 1537 1537 1537 1537 1537 1537 1537 1537 1537 1537 1537 1537 1537 1537 1537 1537 1537 1537 1536 1536 1536 1537 1536 1536 1536 1536 1536 1536 1535 1535 1535 1535 1535 1534 1534
1520 1521 1521 1522 1523 1523 1524 1525 1526 1526 1526 1527 1527 1528 1529 1529 1529 1529 1529 1530 1529 1529 1529 1529 1528 1529 1529 1531 1532 1533 1534 1534 1535 1535 1535 1535 1535 1535 1535 1535 1535 1535 1535 1535 1535 1535 1535 1534 1534 1534 1534 1534 1534 1534 1534 1534 1534 1534 1534 1534 1534 1533 1533 1533 1533 1532 1532 1532 1532
1519 1519 1520 1521 1521 1522 1523 1523 1524 1525 1526 1526 1526 1527 1527 1527 1528 1528 1528 1528 1528 1528 1527 1527 1527 1528 1529 1530 1531 1532 1532 1532 1533 1533 1533 1533 1533 1533 1533 1533 1533 1533 1533 1533 1533 1532 1532 1532 1532 1532 1532 1532 1532 1532 1532 1532 1531 1531 1531 1531 1531 1531 1531 1530 1530 1530 1530 1530 1529
1517 1518 1519 1520 1520 1521 1521 1522 1523 1524 1524 1525 1525 1526 1526 1526 1526 1526 1526 1526 1526 1526 1526 1527 1527 1528 1528 1529 1530 1530 1530 1531 1531 1531 1531 1531 1531 1531 1531 1531 1531 1531 1531 1531 1531 1531 1531 1530 1530 1530 1530 1530 1529 1529 1529 1529 1529 1529 1528 1528 1528 1528 1528 1528 1527 1527 1527 1527 1526
1516 1517 1518 1518 1519 1519 1520 1521 1522 1522 1523 1523 1524 1524 1524 1524 1525 1525 1525 1525 1525 1526 1526 1526 1526 1527 1527 1527 1528 1528 1529 1529 1529 1529 1529 1529 1529 1529 1529 1529 1529 1529 1529 1529 1529 1528 1528 1528 1528 1528 1527 1527 1527 1527 1527 1527 1526 1526 1526 1526 1526 1526 1526 1525 1525 1525 1525 1524 1524
1515 1516 1516 1517 1517 1518 1519 1520 1520 1521 1521 1522 1522 1522 1523 1523 1523 1523 1524 1524 1524 1524 1525 1525 1525 1526 1526 1526 1526 1526 1527 1527 1527 1527 1527 1527 1527 1527 1527 1527 1527 1527 1527 1526 1526 1526 1526 1526 1526 1526 1525 1525 1525 1525 1525 1524 1524 1524 1524 1524 1523 1523 1523 1523 1523 1522 1522 1522 1521
1513 1514 1515 1515 1516 1516 1517 1518 1519 1519 1520 1520 1520 1521 1521 1521 1522 1522 1522 1522 1523 1523 1523 1524 1524 1524 1524 1525 1525 1525 1525 1526 1526 1526 1526 1526 1526 1525 1525 1525 1525 1525 1525 1524 1524 1524 1523 1523 1523 1523 1523 1522 1522 1522 1522 1522 1521 1521 1521 1521 1521 1521 1521 1520 1520 1520 1520 1520 1519
1512 1513 1514 1514 1515 1515 1516 1516 1517 1518 1518 1518 1519 1519 1520 1520 1520 1521 1521 1521 1521 1522 1522 1522 1522 1523 1523 1523 1523 1524 1524 1524 1524 1524 1524 1523 1523 1523 1523 1523 1523 1522 1522 1522 1521 1521 1521 1521 1521 1521 1520 1520 1520 1520 1520 1519 1519 1519 1519 1518 1518 1518 1518 1518 1518 1517 1517 1517 1517
1511 1512 1513 1513 1514 1514 1515 1515 1516 1516 1517 1517 1517 1518 1518 1519 1519 1520 1520 1520 1521 1521 1521 1521 1521 1521 1521 1522 1522 1522 1522 1522 1522 1521 1521 1521 1521 1521 1521 1521 1520 1520 1520 1520 1519 1519 1519 1518 1518 1518 1518 1518 1517 1517 1517 1517 1516 1516 1516 1516 1516 1515 1515 1515 1515 1515 1515 1515 1514
1510 1511 1511 1512 1513 1513 1514 1514 1515 1515 1516 1516 1516 1517 1517 1518 1518 1518 1519 1519 1519 1519 1520 1520 1520 1520 1520 1520 1520 1520 1520 1520 1520 1519 1519 1519 1519 1518 1518 1518 1518 1518 1517 1517 1517 1517 1516 1516 1516 1516 1515 1515 1515 1515 1515 1514 1514 1514 1513 1513 1513 1513 1512 1512 1512 1512 1512 1512 1512
1509 1510 1511 1511 1512 1512 1513 1513 1514 1514 1514 1515 1515 1516 1516 1516 1517 1517 1517 1518 1518 1518 1518 1518 1518 1518 1518 1518 1518 1518 1518 1517 1517 1517 1517 1516 1516 1516 1516 1516 1515 1515 1515 1515 1514 1514 1514 1514 1513 1513 1513 1513 1512 1512 1512 1512 1511 1511 1511 1511 1511 1510 1510 1510 1510 1510 1510 1510 1510
1508 1509 1509 1510 1511 1511 1511 1512 1512 1512 1513 1513 1514 1514 1515 1515 1516 1516 1516 1516 1516 1516 1516 1516 1516 1516 1516 1516 1516 1516 1516 1516 1515 1515 1515 1514 1514 1514 1513 1513 1512 1512 1512 1512 1511 1511 1511 1511 1511 1510 1510 1510 1510 1510 1509 1509 1509 1509 1508 1508 1508 1508 1507 1507 1507 1507 1507 1507 1507
1507 1507 1508 1509 1509 1510 1510 1510 1511 1511 1511 1512 1512 1513 1513 1514 1514 1515 1515 1515 1515 1515 1515 1515 1514 1514 1514 1514 1514 1514 1514 1513 1513 1513 1512 1512 1511 1511 1511 1510 1510 1509 1509 1509 1509 1508 1508 1508 1508 1507 1507 1507 1507 1507 1506 1506 1506 1506 1506 1506 1505 1505 1505 1505 1505 1505 1505 1505 1504
1506 1506 1507 1507 1508 1508 1509 1509 1510 1510 1511 1511 1511 1512 1512 1513 1513 1513 1513 1513 1513 1513 1513 1513 1513 1512 1512 1512 1512 1512 1511 1511 1511 1510 1510 1509 1509 1508 1508 1507 1507 1507 1506 1506 1506 1506 1506 1505 1505 1505 1504 1504 1504 1504 1504 1504 1504 1503 1503 1503 1503 1503 1502 1502 1502 1502 1502 1502 1502
1505 1506 1506 1506 1507 1507 1508 1508 1509 1509 1510 1510 1511 1511 1511 1511 1511 1511 1511 1511 1511 1511 1511 1511 1511 1511 1510 1510 1510 1509 1509 1508 1508 1507 1507 1506 1506 1506 1506 1505 1505 1504 1504 1504 1503 1503 1503 1503 1502 1502 1502 1502 1501 1501 1501 1501 1501 1501 1501 1501 1500 1500 1500 1500 1500 1500 1500 1500 1500
1504 1505 1506 1506 1506 1507 1507 1508 1508 1509 1509 1509 1510 1510 1510 1510 1510 1510 1510 1509 1509 1509 1509 1509 1508 1508 1508 1507 1507 1506 1506 1506 1505 1505 1504 1504 1503 1503 1503 1502 1502 1502 1501 1501 1501 1501 1501 1500 1500 1500 1500 1500 1499 1499 1499 1499 1499 1498 1498 1498 1498 1498 1498 1497 1497 1497 1497 1497 1497
1504 1504 1505 1506 1506 1506 1507 1507 1507 1508 1508 1508 1508 1508 1508 1508 1508 1508 1507 1507 1507 1507 1506 1506 1506 1506 1505 1505 1504 1504 1503 1503 1502 1502 1502 1501 1501 1501 1500 1500 1500 1499 1499 1499 1499 1498 1498 1498 1498 1498 1498 1497 1497 1497 1497 1497 1496 1496 1496 1496 1496 1496 1496 1495 1495 1495 1495 1496 1496
1503 1504 1504 1505 1505 1506 1506 1506 1506 1506 1506 1506 1506 1506 1506 1506 1506 1506 1505 1505 1505 1504 1504 1504 1504 1503 1503 1502 1502 1501 1501 1500 1500 1499 1499 1499 1498 1498 1498 1497 1497 1497 1497 1497 1496 1496 1496 1496 1496 1496 1496 1496 1496 1495 1495 1495 1495 1495 1495 1494 1494 1494 1493 1493 1493 1494 1494 1494 1494
1502 1503 1503 1504 1504 1504 1504 1504 1504 1504 1504 1504 1504 1504 1504 1504 1503 1503 1503 1503 1502 1502 1502 1501 1501 1501 1500 1499 1499 1499 1498 1498 1497 1497 1496 1496 1496 1496 1496 1496 1495 1495 1495 1495 1495 1494 1494 1494 1494 1494 1494 1494 1494 1494 1494 1493 1493 1493 1493 1493 1492 1492 1492 1492 1492 1492 1492 1493 1493
1501 1502 1502 1502 1502 1502 1502 1503 1503 1503 1502 1502 1502 1502 1502 1501 1501 1501 1501 1501 1500 1500 1499 1499 1498 1498 1497 1497 1497 1496 1496 1496 1496 1495 1495 1495 1494 1494 1494 1494 1494 1493 1493 1493 1493 1493 1493 1493 1492 1492 1492 1492 1493 1493 1492 1492 1492 1492 1492 1492 1491 1491 1491 1491 1491 1491 1491 1491 1492
1500 1501 1501 1501 1501 1501 1501 1501 1501 1501 1501 1500 1500 1500 1500 1500 1499 1499 1498 1498 1498 1497 1497 1496 1496 1496 1496 1495 1495 1495 1495 1495 1494 1494 1494 1493 1493 1493 1492 1492 1492 1492 1492 1491 1491 1491 1492 1492 1491 1491 1491 1491 1492 1492 1492 1492 1491 1491 1491 1491 1491 1491 1491 1491 1491 1490 1491 1491 1491
1499 1499 1499 1499 1499 1499 1499 1499 1499 1499 1499 1499 1498 1498 1498 1497 1497 1497 1496 1496 1496 1495 1495 1495 1495 1494 1494 1494 1494 1494 1494 1493 1493 1493 1492 1492 1492 1491 1491 1491 1491 1490 1490 1490 1490 1490 1490 1491 1491 1491 1491 1491 1491 1491 1491 1491 1491 1491 1491 1491 1490 1490 1490 1490 1490 1490 1490 1490 1490
1498 1498 1498 1497 1497 1497 1497 1497 1497 1497 1497 1497 1496 1496 1496 1496 1495 1495 1495 1495 1494 1494 1494 1493 1493 1493 1493 1493 1493 1492 1492 1492 1492 1491 1491 1491 1491 1490 1490 1490 1489 1489 1489 1489 1489 1489 1489 1489 1490 1490 1490 1490 1490 1490 1490 1490 1490 1490 1490 1490 1490 1490 1489 1489 1489 1489 1489 1489 1489
1496 1496 1496 1496 1496 1496 1495 1495 1495 1495 1495 1495 1495 1495 1494 1494 1494 1494 1494 1494 1493 1493 1493 1493 1492 1492 1492 1492 1492 1491 1491 1491 1491 1490 1490 1490 1490 1489 1489 1488 1488 1488 1488 1488 1488 1488 1488 1488 1488 1489 1489 1489 1489 1489 1489 1490 1490 1490 1490 1489 1489 1489 1489 1488 1488 1488 1488 1488 1488
1495 1495 1495 1494 1494 1494 1493 1493 1493 1493 1493 1493 1493 1493 1493 1493 1493 1493 1492 1492 1492 1492 1492 1492 1491 1491 1491 1491 1491 1491 1490 1490 1490 1489 1489 1488 1488 1488 1488 1487 1487 1487 1487 1487 1487 1487 1487 1487 1487 1488 1488 1488 1488 1488 1488 1489 1489 1489 1489 1489 1488 1488 1488 1488 1487 1487 1487 1487 1487
1493 1493 1493 1492 1492 1492 1491 1491 1491 1492 1492 1492 1492 1491 1491 1491 1491 1491 1491 1491 1491 1491 1491 1491 1490 1490 1490 1490 1490 1490 1489 1489 1488 1488 1487 1487 1487 1486 1486 1486 1486 1485 1485 1485 1486 1486 1486 1486 1486 1486 1486 1487 1487 1487 1487 1487 1487 1487 1487 1487 1487 1487 1487 1487 1487 1486 1486 1486 1486
1491 1491 1491 1491 1491 1490 1490 1490 1490 1490 1490 1490 1490 1490 1490 1490 1491 1491 1491 1490 1490 1490 1490 1489 1489 1489 1489 1489 1489 1488 1488 1487 1487 1486 1486 1485 1485 1485 1485 1485 1484 1484 1484 1484 1484 1484 1484 1485 1485 1485 1485 1486 1486 1486 1486 1486 1486 1486 1486 1486 1486 1486 1486 1486 1486 1486 1486 1486 1486
1490 1490 1490 1489 1489 1489 1488 1488 1489 1489 1489 1489 1489 1489 1489 1489 1489 1489 1489 1489 1489 1488 1488 1488 1488 1488 1488 1487 1487 1487 1486 1486 1485 1485 1484 1484 1483 1483 1483 1482 1482 1482 1482 1482 1482 1482 1483 1483 1483 1483 1484 1484 1484 1485 1485 1485 1485 1485 1485 1485 1485 1485 1485 1485 1485 1485 1485 1485 1485
1488 1488 1488 1488 1487 1487 1487 1487 1487 1487 1487 1487 1487 1488 1488 1488 1488 1488 1488 1488 1487 1487 1487 1487 1487 1487 1486 1486 1486 1486 1485 1485 1484 1483 1483 1482 1482 1481 1481 1481 1481 1481 1481 1480 1480 1481 1481 1481 1481 1482 1482 1483 1483 1483 1483 1483 1483 1483 1484 1484 1484 1484 1484 1484 1484 1484 1484 1484 1484
1487 1487 1486 1486 1486 1486 1486 1486 1486 1486 1486 1486 1486 1487 1487 1487 1487 1487 1487 1487 1486 1486 1486 1486 1486 1486 1486 1486 1485 1485 1484 1484 1483 1483 1482 1481 1481 1481 1480 1480 1480 1479 1479 1479 1479 1479 1479 1480 1480 1481 1481 1481 1482 1482 1482 1482 1482 1482 1482 1482 1482 1483 1483 1483 1483 1483 1483 1483 1483
1486 1485 1485 1485 1485 1485 1485 1485 1485 1485 1485 1485 1486 1486 1486 1486 1486 1486 1486 1486 1486 1485 1485 1485 1485 1485 1485 1485 1484 1484 1483 1483 1482 1482 1481 1481 1480 1480 1479 1479 1479 1478 1478 1478 1477 1477 1477 1478 1478 1479 1480 1480 1480 1481 1481 1481 1481 1481 1481 1481 1481 1481 1481 1482 1482 1482 1482 1482 1482
1484 1484 1484 1484 1483 1483 1483 1483 1483 1484 1484 1484 1484 1485 1485 1485 1485 1485 1485 1485 1485 1485 1485 1485 1485 1484 1484 1484 1483 1483 1482 1482 1481 1481 1480 1480 1480 1479 1479 1478 1478 1477 1477 1477 1476 1476 1476 1476 1477 1477 1478 1478 1479 1479 1479 1479 1479 1479 1479 1480 1480 1480 1480 1481 1481 1481 1481 1481 1481
1483 1482 1482 1482 1482 1482 1482 1482 1482 1483 1483 1483 1483 1484 1484 1484 1484 1484 1484 1484 1484 1484 1484 1484 1484 1483 1483 1483 1482 1482 1481 1481 1480 1480 1479 1479 1479 1478 1478 1477 1477 1477 1476 1476 1476 1475 1475 1475 1475 1476 1476 1477 1477 1477 1478 1478 1478 1478 1478 1478 1479 1479 1479 1480 1480 1480 1481 1481 1481
1481 1481 1481 1481 1481 1481 1481 1481 1481 1481 1482 1482 1482 1483 1483 1483 1483 1483 1483 1483 1483 1483 1483 1483 1483 1482 1482 1482 1481 1481 1481 1480 1479 1479 1479 1478 1478 1477 1477 1476 1476 1476 1476 1475 1475 1474 1474 1474 1474 1474 1475 1475 1476 1476 1476 1477 1477 1477 1477 1477 1478 1478 1478 1479 1479 1480 1480 1480 1480
1479 1479 1479 1479 1479 1479 1480 1480 1480 1481 1481 1481 1482 1482 1482 1482 1482 1482 1482 1482 1482 1482 1482 1482 1482 1482 1481 1481 1481 1480 1480 1479 1479 1478 1478 1477 1477 1476 1476 1476 1475 1475 1475 1475 1474 1474 1473 1473 1473 1473 1474 1474 1475 1475 1475 1476 1476 1476 1476 1477 1477 1477 1478 1478 1478 1479 1479 1479 1480
1477 1477 1477 1477 1478 1478 1478 1479 1479 1480 1480 1481 1481 1481 1481 1481 1481 1481 1481 1481 1481 1481 1481 1481 1481 1481 1481 1480 1480 1479 1479 1478 1478 1478 1477 1477 1476 1476 1475 1475 1475 1474 1474 1474 1473 1473 1473 1472 1472 1472 1473 1473 1473 1474 1474 1475 1475 1476 1476 1476 1476 1477 1477 1477 1477 1478 1478 1479 1479
1476 1476 1476 1476 1476 1477 1477 1478 1478 1479 1479 1480 1480 1480 1480 1481 1481 1481 1481 1481 1481 1481 1481 1481 1480 1480 1480 1480 1479 1479 1478 1478 1477 1477 1476 1476 1476 1475 1475 1474 1474 1474 1474 1473 1473 1472 1472 1472 1472 1472 1472 1472 1473 1473 1474 1474 1475 1475 1475 1476 1476 1476 1476 1476 1477 1477 1477 1478 1478
1475 1475 1475 1475 1475 1476 1476 1477 1477 1478 1478 1479 1479 1479 1480 1480 1480 1480 1480 1480 1480 1480 1480 1480 1479 1479 1479 1479 1478 1478 1477 1477 1477 1476 1476 1476 1475 1475 1474 1474 1473 1473 1473 1473 1472 1472 1472 1471 1471 1471 1471 1472 1472 1473 1473 1473 1474 1474 1474 1475 1475 1476 1476 1476 1476 1476 1477 1477 1477
Wind_Speed
23 22 20 20 21 22 23 23 23 23 24 25 26 26 26 26 25 25 24 23 23 23 24 24 24 24 24 25 25 26 26 26 26 25 25 25 25 25 25 25 24 24 24 25 25 25 25 25 26 26 27 28 28 29 29 30 30 30 31 31 31 31 32 32 32 31 30 28 28
24 23 22 22 22 23 23 24 24 25 25 26 26 26 25 24 24 24 24 23 24 25 26 26 25 25 25 25 25 26 25 25 25 25 25 24 24 24 24 24 24 24 25 25 25 25 25 25 25 25 26 27 28 29 30 30 31 31 32 32 32 32 33 33 33 32 31 31 31
27 25 24 24 24 24 24 25 25 26 27 27 27 25 23 21 21 21 21 21 23 24 25 26 26 25 25 25 25 24 24 24 23 23 23 23 23 23 23 23 24 24 24 24 24 24 24 24 25 25 26 26 27 28 29 30 30 31 32 32 32 33 33 33 33 33 33 33 33
28 27 26 26 26 26 25 25 25 26 26 26 25 23 22 21 20 20 21 22 22 23 24 24 24 24 23 23 23 22 22 22 22 22 22 22 22 23 23 23 24 24 24 24 24 24 25 25 25 26 26 26 27 27 28 28 29 29 30 31 31 31 32 32 32 33 33 33 34
27 27 27 26 26 26 25 24 24 24 24 24 24 24 24 24 24 24 24 25 25 25 24 23 21 20 20 20 21 21 21 21 21 22 22 22 23 23 23 24 24 24 24 25 25 25 26 26 26 27 27 27 27 27 27 27 28 28 28 28 29 29 29 30 30 30 31 32 32
26 26 26 25 25 24 24 23 22 22 23 23 23 24 24 24 24 24 24 24 25 24 23 21 19 19 19 20 20 21 21 22 22 23 23 23 23 23 24 24 24 25 25 25 26 26 27 27 27 28 28 28 29 29 29 29 28 29 29 28 28 28 28 28 28 28 29 29 30
25 25 25 24 24 23 22 22 22 22 22 22 23 23 23 23 23 23 23 23 22 22 21 20 19 20 20 21 22 22 22 23 23 23 23 23 23 24 24 24 25 25 26 26 26 27 27 27 28 28 29 29 29 30 30 30 30 30 30 30 30 29 29 29 29 29 29 29 29
24 25 25 24 23 22 21 21 22 22 22 22 22 22 22 22 22 22 22 21 21 21 20 21 21 21 22 22 23 23 23 23 23 23 23 24 24 24 24 25 25 26 26 27 27 27 27 28 28 29 29 29 30 30 30 31 31 31 31 31 31 31 31 31 30 30 30 30 30
25 25 25 25 23 22 21 21 21 21 21 21 22 22 21 21 21 21 21 21 21 21 22 22 22 23 23 23 23 23 23 23 24 24 24 24 24 25 25 26 26 26 27 27 27 28 28 28 29 29 29 30 30 31 31 31 32 32 32 32 32 31 31 31 31 31 31 31 30
25 25 25 24 23 21 20 20 20 20 20 20 21 21 21 21 21 21 21 21 22 22 22 23 23 23 23 23 23 23 23 24 24 24 24 25 25 25 26 26 27 27 28 28 28 29 29 29 29 29 30 30 31 31 31 32 32 32 32 32 32 32 32 32 31 31 31 30 30
25 24 24 23 21 20 18 18 18 18 19 19 20 20 20 21 21 21 21 22 22 22 23 23 23 23 23 23 23 23 24 24 24 25 25 25 26 26 27 27 27 28 28 29 29 29 30 30 30 30 30 31 31 31 32 32 32 32 32 32 32 32 32 32 31 31 30 30 29
24 23 22 20 18 17 17 17 17 18 19 19 20 20 20 21 21 21 22 22 22 22 23 23 23 23 23 23 23 24 24 25 25 26 26 26 27 27 28 28 28 29 29 29 30 30 30 30 31 31 31 31 31 32 32 32 32 32 32 32 32 32 32 32 31 30 30 29 28
21 20 19 17 17 16 16 17 18 19 19 19 20 20 20 21 21 21 22 22 22 22 23 23 23 23 23 24 24 25 25 26 26 27 27 28 28 29 29 29 30 30 30 30 30 30 30 31 31 31 31 31 31 32 32 32 32 32 32 32 32 32 32 31 31 30 29 28 28
19 18 17 17 17 17 17 18 19 19 19 19 20 20 20 21 21 21 21 22 22 23 23 23 24 24 24 24 25 26 26 27 28 28 29 29 30 30 30 31 31 31 31 31 31 31 31 31 31 31 31 31 31 31 32 32 32 32 32 32 31 31 31 31 30 29 28 28 28
17 17 17 17 17 17 17 18 18 19 19 19 20 20 20 21 21 21 21 22 22 23 23 24 24 25 25 26 26 27 27 28 29 29 30 30 30 31 31 31 31 31 31 31 31 31 31 30 30 31 31 31 31 31 31 31 31 31 31 31 30 30 30 30 29 29 28 28 28
17 17 17 17 17 17 17 17 18 18 19 19 20 20 20 20 21 21 21 22 22 23 24 24 25 26 26 27 27 28 28 29 29 30 30 30 31 31 31 31 31 31 31 31 31 30 30 30 30 30 30 30 30 30 30 30 30 30 30 30 29 29 29 29 28 28 28 27 28
16 16 16 16 16 17 17 17 18 18 19 19 19 20 20 20 20 21 22 22 23 24 25 26 26 27 27 28 28 29 29 29 30 30 30 31 31 31 31 31 31 31 30 30 30 30 29 29 29 29 29 29 29 29 29 29 29 29 29 28 28 28 28 27 27 27 27 27 27
16 16 16 16 16 17 17 18 18 18 19 19 19 19 20 20 21 22 23 24 24 25 26 27 27 28 28 28 29 29 29 30 30 30 30 30 31 31 30 30 30 30 30 29 29 29 29 29 29 28 28 28 28 28 28 27 27 27 27 27 27 26 26 26 26 26 26 26 26
16 16 16 16 16 17 17 18 18 18 18 19 19 19 20 21 22 23 24 25 25 26 27 27 27 28 28 28 29 29 30 30 30 30 31 31 31 31 31 30 30 30 29 29 29 28 28 27 27 27 27 27 27 26 26 26 26 26 26 26 26 26 26 26 25 25 25 25 24
16 16 16 16 16 16 17 17 17 18 18 19 19 20 21 22 23 24 24 25 25 26 26 27 27 28 28 29 29 29 29 30 30 30 30 30 30 30 30 29 29 29 28 28 27 27 26 26 26 26 25 25 26 26 26 25 25 24 24 24 25 25 25 25 24 23 22 21 20
15 15 15 16 16 16 16 17 17 18 18 19 20 21 22 23 23 23 24 24 25 26 26 27 27 28 28 28 28 28 28 28 28 28 28 28 28 28 27 27 27 26 26 26 25 25 25 25 24 24 24 24 24 23 23 22 21 21 22 22 22 22 22 21 20 19 18 17 16
14 15 15 15 15 15 16 16 17 18 18 19 20 21 21 22 22 23 23 24 25 25 26 26 26 26 26 26 26 25 25 25 25 25 25 25 24 24 24 24 23 23 23 23 23 22 22 22 21 21 20 20 19 18 18 18 19 19 19 19 18 17 16 16 16 15 15 15 15
13 14 14 14 14 15 15 16 17 17 18 19 20 20 20 21 21 22 23 23 23 24 24 23 23 23 22 22 22 22 22 21 21 21 21 21 21 21 21 21 20 19 19 18 18 17 17 17 18 18 17 16 15 15 16 17 17 17 17 16 14 13 13 13 14 15 15 15 15
13 13 13 13 14 14 15 16 17 17 18 18 18 19 19 19 20 20 21 20 20 20 20 20 20 19 19 20 20 19 19 18 18 18 18 19 19 19 19 18 18 17 16 16 16 15 14 14 14 15 15 14 14 14 15 15 15 15 14 14 13 12 12 13 14 14 14 14 15
12 12 12 13 13 14 15 16 16 17 17 17 17 17 17 17 17 17 17 16 16 16 17 17 17 17 17 18 18 17 17 17 17 17 18 18 18 17 17 17 17 16 16 16 16 16 15 14 13 13 13 14 14 14 14 13 13 13 13 13 12 12 12 13 12 12 13 13 14
11 11 12 13 14 14 15 16 16 16 15 15 15 15 15 15 15 14 13 12 12 13 14 14 15 16 16 16 16 16 16 16 16 17 17 17 17 18 18 17 17 16 15 15 15 15 15 14 14 15 15 15 14 14 13 12 12 12 12 12 12 12 12 12 13 13 14 14 15
11 11 12 13 14 15 15 16 16 15 14 14 14 13 13 13 12 12 11 10 10 11 12 13 14 15 15 16 15 15 15 15 16 16 16 17 18 18 19 18 17 16 15 14 14 14 14 14 15 16 16 15 14 13 12 12 13 13 13 12 12 11 11 11 12 13 14 14 15
11 12 12 13 14 15 16 16 15 14 13 12 12 12 12 11 10 10 10 10 11 11 12 12 13 13 14 14 14 14 15 16 16 16 17 18 19 19 19 18 18 17 16 15 15 14 14 14 15 15 15 14 14 13 13 14 14 14 14 14 13 12 10 10 10 11 12 12 13
12 12 13 13 14 15 16 15 14 13 12 12 12 11 10 10 9 9 10 11 12 12 11 11 12 12 12 12 13 15 16 17 17 18 19 20 20 19 18 18 17 17 17 17 16 16 15 15 15 15 14 14 14 14 15 15 15 16 16 16 15 13 12 11 10 10 10 10 11
12 12 13 14 14 15 15 15 13 12 12 11 11 10 9 9 9 10 11 11 12 11 10 10 10 10 10 11 13 14 16 17 18 19 20 20 19 18 17 16 16 17 18 18 18 18 17 17 16 16 15 15 15 15 16 16 16 16 17 17 16 14 13 12 11 11 10 10 10
13 13 14 14 15 15 14 13 12 12 11 11 10 10 9 10 10 10 11 11 11 10 9 9 9 9 10 11 12 14 15 17 17 18 18 18 18 17 16 15 14 15 17 18 19 19 19 19 18 17 16 16 16 17 17 17 17 16 16 16 15 14 13 12 12 11 11 11 11
14 14 14 14 14 14 13 12 12 11 11 10 10 10 10 10 10 10 11 11 10 10 9 9 9 10 11 12 13 14 15 16 17 18 18 17 17 16 16 15 14 14 15 16 18 20 20 21 20 19 18 18 18 18 18 18 18 17 16 15 14 14 13 13 12 12 12 12 11
15 15 15 15 14 13 12 12 11 11 11 10 10 10 10 10 10 11 11 11 11 10 10 10 10 11 11 13 14 16 17 17 18 17 17 16 16 16 15 15 15 14 14 15 16 18 20 21 21 21 20 20 20 19 19 19 18 18 17 16 15 14 14 14 13 13 12 12 12
16 16 16 14 13 12 11 11 11 11 11 10 10 10 10 10 11 11 12 12 11 11 11 11 11 12 13 14 15 16 17 17 17 16 15 15 14 15 15 15 15 15 14 14 14 15 17 19 20 21 21 21 21 20 19 18 17 17 16 16 15 15 15 14 14 13 13 12 12
17 17 16 14 12 11 11 11 11 11 10 10 10 10 10 11 11 11 11 11 11 11 11 11 12 13 14 15 16 16 16 16 15 14 14 13 13 14 14 15 15 15 14 14 13 13 14 16 18 20 20 20 20 19 17 16 15 15 15 15 15 15 15 14 14 13 13 12 12
17 17 15 13 11 10 11 11 11 11 10 10 10 10 10 10 10 9 9 10 10 10 11 11 12 13 14 15 15 15 15 14 13 13 12 12 13 13 14 15 15 14 13 13 12 12 13 13 15 17 18 18 17 16 15 14 14 14 14 14 15 14 14 14 13 13 13 12 12
18 17 15 13 11 10 11 11 11 11 11 10 10 10 10 9 9 8 8 9 9 10 11 11 12 13 14 14 14 14 13 12 11 11 11 11 12 12 13 14 14 13 12 11 11 11 11 12 13 13 14 14 14 14 13 13 13 13 14 14 14 14 14 13 13 13 12 12 11
18 17 15 13 11 11 11 12 12 12 11 10 9 9 9 8 8 8 8 9 9 10 11 11 12 13 13 14 14 13 12 11 10 10 10 11 11 12 13 13 12 11 10 10 10 10 10 11 11 11 12 12 12 12 12 12 12 13 13 13 14 14 13 13 12 12 12 11 11
17 16 15 13 11 11 11 12 12 12 11 10 9 9 8 8 8 8 9 9 10 10 11 11 12 12 13 13 12 12 11 10 10 9 10 10 11 11 12 12 11 10 8 8 8 9 9 10 10 10 11 11 11 12 12 12 12 13 13 13 13 13 13 13 12 12 11 11 11
16 16 14 13 11 11 11 12 12 12 11 11 10 9 8 8 8 8 9 10 10 10 10 11 11 11 11 11 11 11 11 10 10 10 10 10 10 11 11 11 9 8 7 7 8 8 8 9 9 9 10 11 11 12 12 13 13 13 13 13 13 13 13 13 12 12 12 11 11
16 15 14 13 11 11 11 12 12 12 12 11 10 9 8 8 8 9 10 10 10 10 10 10 10 10 10 10 11 11 11 11 11 10 10 10 10 10 10 10 9 8 7 7 7 8 8 8 8 9 9 10 11 12 12 13 13 13 13 13 13 13 13 13 13 13 12 12 11
Wind_Direction
200 199 200 202 206 209 210 210 212 214 215 215 213 212 210 208 207 206 206 206 208 212 217 222 225 227 228 228 228 227 227 227 228 231 234 237 240 242 244 246 248 249 251 252 254 255 256 257 258 258 259 259 260 260 260 260 260 260 259 260 260 261 263 265 267 269 270 268 265
202 202 204 207 211 214 217 218 218 219 220 221 220 218 215 212 210 210 210 211 213 216 221 225 228 230 231 232 233 233 233 234 236 239 242 244 246 247 249 250 251 252 254 256 257 259 260 261 261 261 261 260 260 260 260 260 260 260 260 260 261 263 264 265 267 269 269 268 267
204 205 207 210 213 216 219 220 221 222 224 225 226 224 221 219 218 219 219 220 222 224 227 230 232 233 234 235 237 238 240 242 245 247 250 252 253 254 256 257 258 260 261 263 264 265 266 266 266 265 264 264 263 262 261 261 261 261 261 261 262 263 263 264 266 267 267 267 267
206 209 211 213 215 217 219 220 222 224 227 230 232 233 233 233 235 236 237 238 238 238 238 238 237 237 237 239 241 243 246 249 252 254 256 258 260 261 263 264 265 267 268 269 270 271 271 271 270 269 268 267 266 265 264 263 262 262 261 262 262 262 262 263 264 264 265 265 265
210 213 215 217 218 219 220 221 223 226 230 233 237 241 243 246 247 249 250 250 250 249 248 246 244 243 244 245 246 249 251 254 257 259 261 262 264 265 266 268 269 270 271 272 273 273 273 273 272 272 271 270 269 268 267 266 265 264 264 264 264 263 263 263 264 264 264 264 264
214 217 219 220 221 222 222 223 226 229 233 237 240 243 246 248 249 250 252 252 253 253 253 252 252 252 251 251 252 254 256 258 260 261 263 264 265 266 268 269 270 271 272 273 274 274 274 275 275 274 274 273 272 272 271 270 270 269 269 268 268 268 268 268 267 267 266 265 265
219 220 222 223 224 224 224 226 229 232 235 238 240 242 244 245 246 248 249 250 252 254 255 256 256 255 254 255 255 257 259 261 262 264 265 266 267 268 269 270 271 272 273 273 273 274 274 274 274 274 274 273 273 272 272 272 271 271 271 271 272 272 272 272 272 271 271 270 269
221 223 225 226 225 225 225 228 231 234 236 238 239 240 240 241 242 244 245 248 250 253 254 255 255 255 256 257 259 260 262 264 265 266 268 268 269 270 270 271 272 272 273 273 273 273 273 273 273 272 272 271 271 271 271 271 271 271 271 271 272 272 273 273 273 273 273 273 272
223 225 226 228 228 227 228 230 232 235 236 237 238 238 239 240 241 243 245 248 250 252 253 255 256 258 259 261 262 264 265 266 267 268 268 269 270 270 271 271 272 272 273 273 273 273 273 272 272 271 271 271 270 270 270 270 270 270 271 271 271 271 272 272 272 273 273 273 273
226 228 230 231 231 231 231 232 234 237 239 240 240 241 242 243 245 247 249 250 252 254 256 258 260 261 262 263 264 265 265 266 266 267 268 269 269 270 271 271 272 272 273 273 273 273 273 273 272 272 272 272 271 271 271 271 271 271 271 271 271 271 271 271 272 272 273 273 273
229 231 232 234 234 234 235 236 238 240 242 243 244 245 247 248 250 251 253 255 257 259 260 261 262 263 263 264 264 265 265 266 267 267 268 269 269 270 271 271 272 272 272 273 273 273 273 273 273 273 273 273 272 272 272 272 272 272 272 272 272 272 272 272 272 272 272 273 273
231 232 234 235 235 236 237 238 240 242 243 245 247 248 250 251 253 254 256 258 260 261 262 262 263 263 264 265 265 266 267 268 268 269 270 270 271 271 272 272 272 272 272 272 273 273 273 273 273 273 272 272 272 272 272 272 272 272 272 272 272 272 272 272 272 272 272 272 271
233 234 235 235 236 236 237 238 240 241 243 245 247 248 250 252 254 255 257 259 260 261 261 262 263 264 265 266 267 268 269 270 271 271 271 272 272 273 273 273 273 273 273 272 272 272 272 272 272 272 272 272 271 272 272 272 271 272 272 272 272 272 272 272 272 271 271 270 269
235 236 237 236 236 236 237 238 240 241 243 245 247 249 251 252 254 256 257 259 260 261 262 263 265 266 267 268 269 270 270 271 272 273 273 274 274 274 275 275 275 274 274 274 273 273 273 272 272 272 272 271 271 271 271 271 271 271 271 272 272 272 272 271 271 271 270 269 268
235 236 236 237 237 238 239 240 242 244 246 247 249 251 252 254 256 257 259 260 262 263 264 266 267 268 268 269 270 271 271 272 273 274 275 275 276 276 276 276 276 276 276 275 275 275 275 274 274 273 273 272 271 271 270 270 270 270 270 270 271 271 270 270 270 270 269 268 266
231 233 235 237 238 240 242 244 246 247 249 250 252 253 255 257 258 260 262 263 264 266 266 268 268 269 270 270 271 272 273 274 274 275 276 276 276 276 277 277 277 277 277 277 277 277 277 276 275 274 273 272 272 271 270 270 270 270 269 269 269 269 269 269 268 268 267 266 265
229 232 235 237 240 242 244 246 248 250 251 253 255 257 259 261 262 264 264 265 266 267 267 268 269 270 271 272 273 274 274 275 275 275 275 275 276 276 276 276 277 277 277 277 277 277 276 276 275 274 274 273 272 272 272 272 271 271 271 270 270 269 268 267 267 266 265 264 263
230 232 235 238 241 243 245 248 250 252 254 257 259 261 263 264 265 265 265 266 266 267 268 269 270 271 272 273 273 274 274 274 274 274 274 274 274 275 275 275 276 276 276 276 276 276 275 275 275 274 274 274 274 274 274 274 273 273 272 271 270 269 268 267 265 264 263 262 260
231 233 236 239 241 244 247 250 252 255 258 261 262 263 264 264 264 265 266 267 268 268 269 270 271 272 272 272 272 273 273 273 273 273 273 273 274 274 274 274 275 275 275 275 275 275 275 274 274 274 274 275 275 275 275 274 273 273 272 271 269 268 267 266 265 263 262 260 257
232 235 238 241 244 247 250 253 256 259 261 262 263 264 264 265 266 267 268 269 270 270 271 271 271 272 272 272 272 273 273 273 273 274 274 275 275 275 275 275 275 274 274 274 274 274 273 273 273 273 274 274 274 274 274 273 272 272 271 271 270 269 268 266 265 263 261 258 255
236 238 242 245 248 252 255 257 260 262 263 264 265 266 267 268 270 271 271 271 271 271 272 272 272 272 273 273 273 274 275 275 276 277 277 278 278 278 277 277 276 276 275 274 274 273 273 273 273 273 274 274 274 273 273 273 273 273 273 273 273 271 269 267 265 263 260 258 256
241 245 248 251 254 257 260 262 264 265 266 267 269 270 271 272 273 273 273 273 273 274 274 275 275 275 275 276 277 278 279 280 281 282 282 282 282 281 281 280 280 279 278 277 276 276 277 277 277 277 277 278 278 278 279 279 279 280 280 279 278 275 271 267 264 260 258 256 254
247 251 255 258 260 263 265 266 268 269 271 272 273 274 274 274 274 274 274 276 277 278 279 280 280 281 281 282 283 284 285 286 286 286 285 285 285 285 284 284 283 282 281 280 280 281 283 284 284 282 282 282 282 283 284 285 285 285 284 283 281 278 272 266 260 256 252 250 248
254 258 262 264 267 269 270 271 273 274 275 275 275 274 274 273 274 275 278 281 283 285 286 286 286 287 287 287 288 289 289 290 289 287 286 285 285 285 285 285 285 284 282 279 276 275 277 280 281 281 279 278 278 279 279 280 281 281 281 280 279 276 270 264 259 255 252 249 247
261 266 269 272 273 275 275 276 276 277 276 275 274 273 273 273 275 278 282 286 289 292 293 293 292 290 290 290 289 289 288 287 286 285 285 286 286 287 287 286 286 285 283 278 274 270 267 267 267 268 270 272 274 275 276 275 273 272 272 272 272 270 268 264 261 257 254 251 249
269 274 277 278 279 279 279 279 280 279 277 274 271 271 271 272 274 277 281 286 291 294 295 294 292 290 289 288 287 286 285 284 284 286 288 290 291 290 289 288 288 287 285 282 278 274 268 263 262 263 266 271 275 276 274 269 267 266 266 268 267 266 264 262 259 255 251 249 249
279 283 284 284 284 283 283 283 284 282 277 272 268 267 266 267 270 273 277 283 287 290 290 289 287 285 284 284 283 282 281 281 283 285 286 287 287 287 286 287 287 285 282 280 278 275 271 266 263 264 266 268 271 271 267 263 262 262 263 265 266 264 261 258 256 253 250 247 246
287 289 289 289 288 286 287 288 286 283 276 269 264 262 261 263 266 271 277 282 285 286 286 284 281 281 280 277 275 273 272 272 275 277 278 277 278 279 280 281 280 279 276 274 271 269 267 264 262 261 261 262 262 261 258 255 254 255 257 262 266 268 267 263 259 256 252 248 244
292 294 294 293 290 289 289 289 286 282 275 268 263 262 262 264 268 274 279 283 285 286 284 281 279 278 274 269 266 264 265 267 270 272 273 274 276 277 277 276 273 271 269 267 265 263 261 259 257 256 255 255 255 254 253 251 249 249 252 256 263 268 270 269 265 260 255 249 245
296 297 297 295 292 290 289 288 285 279 273 267 265 264 265 267 271 276 282 285 287 286 283 280 277 274 271 267 266 267 269 272 275 277 279 281 282 281 280 277 272 267 263 261 259 257 255 255 254 253 252 252 252 252 252 252 250 249 250 254 259 265 268 269 267 262 257 251 247
298 299 298 296 292 289 286 284 280 274 268 265 263 262 264 267 271 277 283 287 287 285 282 280 279 278 277 277 278 280 283 287 290 292 294 294 293 293 292 289 281 271 263 259 255 252 251 251 251 252 252 251 251 252 254 256 256 255 254 256 260 264 267 268 266 262 257 253 248
299 300 299 296 291 286 282 277 272 267 263 260 259 260 263 269 275 280 284 284 282 279 277 278 282 286 288 291 294 296 299 301 302 302 302 302 301 301 301 300 294 284 273 264 257 253 250 249 249 250 251 251 252 254 257 260 261 261 260 261 262 264 265 266 264 260 255 251 248
297 298 298 295 289 281 274 269 264 261 258 257 257 259 265 271 277 279 279 277 273 271 271 275 280 285 289 292 295 297 299 299 298 298 298 299 301 302 303 302 299 294 287 277 266 257 252 249 248 249 250 252 254 257 260 262 263 262 262 261 262 262 262 261 260 256 251 247 244
294 295 295 293 285 275 266 260 257 255 254 254 256 261 267 272 274 274 273 272 269 267 268 272 277 282 287 291 294 297 298 298 297 295 294 295 296 298 299 299 298 297 294 287 275 263 255 251 249 249 250 253 255 259 261 262 261 260 259 258 259 259 259 258 256 252 247 243 240
290 291 291 288 278 265 256 252 251 250 250 252 257 264 270 273 272 270 268 268 268 268 270 274 279 284 289 293 296 299 300 300 298 295 293 293 294 295 296 297 297 297 295 289 281 270 261 255 251 250 250 252 255 257 258 257 255 254 253 254 254 255 255 254 252 248 243 240 238
286 287 287 282 269 254 245 243 244 245 247 251 258 267 273 274 269 264 262 263 266 270 274 279 284 289 292 295 297 299 300 300 299 297 295 294 295 295 295 296 296 296 293 288 283 276 269 261 255 251 250 250 251 252 251 249 247 246 247 248 250 251 252 251 248 244 241 238 237
284 285 284 277 260 244 237 236 238 240 243 249 258 268 273 273 269 265 264 267 271 276 281 285 289 291 293 296 298 301 302 303 303 302 300 297 295 294 293 294 294 294 292 287 282 277 271 265 258 252 249 246 245 244 242 239 238 239 241 243 246 248 248 246 244 242 239 238 237
284 284 282 276 258 240 232 231 232 235 240 248 258 266 269 269 271 274 277 280 281 282 285 288 289 290 292 294 298 302 305 307 307 305 301 297 294 292 291 291 293 294 292 287 281 275 269 264 258 252 246 241 237 234 231 230 230 233 236 239 243 245 245 243 242 241 240 238 238
283 282 281 275 259 241 230 227 229 233 239 247 256 263 265 264 270 276 281 283 284 284 285 285 285 286 287 290 295 300 304 306 305 303 300 297 295 293 292 292 294 295 294 288 281 275 269 264 258 251 244 237 232 228 225 224 226 228 232 235 238 241 242 242 242 242 241 240 238
281 280 277 272 259 242 230 226 228 232 237 245 254 260 262 261 265 271 275 278 281 282 282 280 279 280 282 286 292 297 300 301 301 300 299 298 298 298 298 297 299 298 296 290 283 278 273 267 259 252 243 236 230 225 222 221 223 225 228 231 233 236 239 241 242 243 243 242 240
278 276 271 265 256 242 231 226 228 232 236 242 249 257 261 261 264 267 270 274 278 280 280 278 278 279 282 286 291 295 297 298 297 297 298 299 301 302 304 304 305 304 299 292 286 282 277 270 262 252 243 236 230 225 222 221 221 223 225 228 230 232 234 239 242 244 244 244 242